Wetterdaten: Samstag, 28.12.2013
Datum Zeit Temperatur Luftfeuchte Luftdruck Regen Wind Richtung Richtung Taupunkt Windchill Windben
28.12.2013 00:00 -2,6 C 96 % 1010,5 hPa 0,0 l/m 0,0 km/h (0 Bft) S 180 -3,1 C -2,7 C 0,0 km/h (0 Bft)
28.12.2013 00:05 -2,6 C 96 % 1010,5 hPa 0,0 l/m 0,0 km/h (0 Bft) S 180 -3,1 C -2,8 C 0,0 km/h (0 Bft)
28.12.2013 00:10 -2,7 C 96 % 1010,5 hPa 0,0 l/m 0,0 km/h (0 Bft) S 180 -3,2 C -2,7 C 0,0 km/h (0 Bft)
28.12.2013 00:15 -2,7 C 96 % 1010,5 hPa 0,0 l/m 0,5 km/h (0 Bft) S 180 -3,2 C -2,8 C 0,0 km/h (0 Bft)
28.12.2013 00:20 -2,5 C 96 % 1010,5 hPa 0,0 l/m 0,6 km/h (0 Bft) S 180 -3,0 C -2,8 C 1,8 km/h (1 Bft)
28.12.2013 00:25 -2,2 C 96 % 1010,5 hPa 0,0 l/m 0,8 km/h (0 Bft) S 180 -2,7 C -2,7 C 0,0 km/h (0 Bft)
28.12.2013 00:30 -2,2 C 96 % 1010,5 hPa 0,0 l/m 0,3 km/h (0 Bft) S 180 -2,7 C -2,3 C 0,0 km/h (0 Bft)
28.12.2013 00:35 -2,3 C 96 % 1010,5 hPa 0,0 l/m 0,3 km/h (0 Bft) S 180 -2,8 C -2,1 C 4,7 km/h (1 Bft)
28.12.2013 00:40 -2,2 C 96 % 1010,5 hPa 0,0 l/m 0,5 km/h (0 Bft) S 180 -2,7 C -2,1 C 0,0 km/h (0 Bft)
28.12.2013 00:45 -2,4 C 96 % 1010,5 hPa 0,0 l/m 0,2 km/h (0 Bft) S 180 -2,9 C -2,2 C 0,0 km/h (0 Bft)
28.12.2013 00:50 -2,4 C 96 % 1010,2 hPa 0,0 l/m 0,2 km/h (0 Bft) S 180 -2,9 C -2,5 C 0,0 km/h (0 Bft)
28.12.2013 00:55 -2,7 C 96 % 1010,2 hPa 0,0 l/m 0,2 km/h (0 Bft) S 180 -3,2 C -2,5 C 0,0 km/h (0 Bft)
28.12.2013 01:00 -2,7 C 96 % 1010,2 hPa 0,0 l/m 0,3 km/h (0 Bft) S 180 -3,2 C -2,6 C 1,8 km/h (1 Bft)
28.12.2013 01:05 -2,4 C 96 % 1010,2 hPa 0,0 l/m 1,0 km/h (0 Bft) S 180 -2,9 C -2,7 C 2,7 km/h (1 Bft)
28.12.2013 01:10 -2,5 C 96 % 1010,1 hPa 0,0 l/m 1,3 km/h (1 Bft) S 180 -3,0 C -2,5 C 3,4 km/h (1 Bft)
28.12.2013 01:15 -2,0 C 96 % 1010,1 hPa 0,0 l/m 1,3 km/h (1 Bft) S 180 -2,6 C -2,4 C 3,5 km/h (1 Bft)
28.12.2013 01:20 -2,1 C 96 % 1010,1 hPa 0,0 l/m 1,3 km/h (1 Bft) S 180 -2,6 C -2,3 C 0,0 km/h (0 Bft)
28.12.2013 01:25 -2,4 C 96 % 1010,1 hPa 0,0 l/m 1,0 km/h (0 Bft) S 180 -2,9 C -2,1 C 2,7 km/h (1 Bft)
28.12.2013 01:30 -2,5 C 96 % 1010,1 hPa 0,0 l/m 0,5 km/h (0 Bft) S 180 -3,0 C -2,4 C 0,0 km/h (0 Bft)
28.12.2013 01:35 -2,7 C 96 % 1010,1 hPa 0,0 l/m 0,0 km/h (0 Bft) S 180 -3,2 C -2,6 C 0,0 km/h (0 Bft)
28.12.2013 01:40 -2,8 C 96 % 1010,1 hPa 0,0 l/m 0,0 km/h (0 Bft) S 180 -3,3 C -2,7 C 0,0 km/h (0 Bft)
28.12.2013 01:45 -2,7 C 96 % 1010,1 hPa 0,0 l/m 0,0 km/h (0 Bft) S 180 -3,2 C -2,7 C 0,0 km/h (0 Bft)
28.12.2013 01:50 -2,6 C 96 % 1009,8 hPa 0,0 l/m 0,2 km/h (0 Bft) S 180 -3,1 C -2,5 C 3,9 km/h (1 Bft)
28.12.2013 01:55 -2,5 C 96 % 1009,8 hPa 0,0 l/m 0,3 km/h (0 Bft) S 180 -3,0 C -2,5 C 0,0 km/h (0 Bft)
28.12.2013 02:00 -2,8 C 96 % 1009,8 hPa 0,0 l/m 0,3 km/h (0 Bft) S 180 -3,3 C -2,6 C 0,0 km/h (0 Bft)
28.12.2013 02:05 -2,7 C 96 % 1009,8 hPa 0,0 l/m 0,0 km/h (0 Bft) S 180 -3,2 C -2,6 C 0,0 km/h (0 Bft)
28.12.2013 02:10 -2,7 C 96 % 1009,7 hPa 0,0 l/m 0,0 km/h (0 Bft) S 180 -3,2 C -2,5 C 0,0 km/h (0 Bft)
28.12.2013 02:15 -2,6 C 96 % 1009,7 hPa 0,0 l/m 0,5 km/h (0 Bft) S 180 -3,1 C -2,7 C 3,2 km/h (1 Bft)
28.12.2013 02:20 -2,3 C 96 % 1009,7 hPa 0,0 l/m 0,6 km/h (0 Bft) S 180 -2,8 C -2,7 C 0,0 km/h (0 Bft)
28.12.2013 02:25 -2,2 C 96 % 1009,7 hPa 0,0 l/m 0,6 km/h (0 Bft) S 180 -2,7 C -2,6 C 0,0 km/h (0 Bft)
28.12.2013 02:30 -2,3 C 96 % 1009,6 hPa 0,0 l/m 0,0 km/h (0 Bft) S 180 -2,8 C -2,4 C 0,0 km/h (0 Bft)
28.12.2013 02:35 -2,4 C 96 % 1009,6 hPa 0,0 l/m 0,0 km/h (0 Bft) S 180 -2,9 C -2,4 C 0,0 km/h (0 Bft)
28.12.2013 02:40 -1,6 C 96 % 1009,6 hPa 0,0 l/m 1,8 km/h (1 Bft) S 180 -2,2 C -2,2 C 3,4 km/h (1 Bft)
28.12.2013 02:45 -2,1 C 96 % 1009,6 hPa 0,0 l/m 1,9 km/h (1 Bft) S 180 -2,6 C -1,9 C 8,5 km/h (2 Bft)
28.12.2013 02:50 -2,1 C 96 % 1009,9 hPa 0,0 l/m 1,1 km/h (1 Bft) S 180 -2,6 C -2,0 C 0,0 km/h (0 Bft)
28.12.2013 02:55 -2,1 C 96 % 1009,9 hPa 0,0 l/m 0,6 km/h (0 Bft) S 180 -2,6 C -2,1 C 0,0 km/h (0 Bft)
28.12.2013 03:00 -2,3 C 96 % 1009,9 hPa 0,0 l/m 0,2 km/h (0 Bft) S 180 -2,8 C -2,1 C 0,0 km/h (0 Bft)
28.12.2013 03:05 -2,1 C 96 % 1009,9 hPa 0,0 l/m 0,2 km/h (0 Bft) S 180 -2,6 C -2,1 C 0,0 km/h (0 Bft)
28.12.2013 03:09 -1,7 C 96 % 1009,6 hPa 0,0 l/m 1,3 km/h (1 Bft) S 180 -2,3 C -2,0 C 1,9 km/h (1 Bft)
28.12.2013 03:10 -1,7 C 96 % 1009,6 hPa 0,0 l/m 1,3 km/h (1 Bft) S 180 -2,3 C -2,0 C 1,9 km/h (1 Bft)
28.12.2013 03:15 -2,3 C 96 % 1009,6 hPa 0,0 l/m 1,1 km/h (1 Bft) S 180 -2,8 C -2,1 C 0,0 km/h (0 Bft)
28.12.2013 03:20 -2,3 C 96 % 1009,6 hPa 0,0 l/m 0,2 km/h (0 Bft) S 180 -2,8 C -2,3 C 0,0 km/h (0 Bft)
28.12.2013 03:25 -2,7 C 96 % 1009,6 hPa 0,0 l/m 0,0 km/h (0 Bft) S 180 -3,2 C -2,4 C 0,0 km/h (0 Bft)
28.12.2013 03:30 -2,1 C 96 % 1009,4 hPa 0,0 l/m 0,5 km/h (0 Bft) S 180 -2,6 C -2,6 C 0,0 km/h (0 Bft)
28.12.2013 03:35 -2,2 C 96 % 1009,4 hPa 0,0 l/m 1,3 km/h (1 Bft) S 180 -2,7 C -2,5 C 4,2 km/h (1 Bft)
28.12.2013 03:40 -1,6 C 96 % 1009,4 hPa 0,0 l/m 2,3 km/h (1 Bft) S 180 -2,2 C -2,1 C 5,1 km/h (1 Bft)
28.12.2013 03:45 -1,6 C 96 % 1009,4 hPa 0,0 l/m 3,1 km/h (1 Bft) S 180 -2,2 C -2,4 C 0,0 km/h (0 Bft)
28.12.2013 03:50 -1,7 C 96 % 1009,2 hPa 0,0 l/m 1,4 km/h (1 Bft) S 180 -2,3 C -1,8 C 0,0 km/h (0 Bft)
28.12.2013 03:55 -2,0 C 96 % 1009,2 hPa 0,0 l/m 0,5 km/h (0 Bft) S 180 -2,6 C -1,8 C 0,0 km/h (0 Bft)
28.12.2013 04:00 -1,9 C 96 % 1009,2 hPa 0,0 l/m 0,2 km/h (0 Bft) S 180 -2,5 C -1,8 C 0,0 km/h (0 Bft)
28.12.2013 04:05 -2,0 C 96 % 1009,2 hPa 0,0 l/m 0,2 km/h (0 Bft) S 180 -2,6 C -1,9 C 0,0 km/h (0 Bft)
28.12.2013 04:10 -2,0 C 96 % 1009,2 hPa 0,0 l/m 0,5 km/h (0 Bft) S 180 -2,6 C -2,0 C 2,3 km/h (1 Bft)
28.12.2013 04:15 -1,9 C 96 % 1009,2 hPa 0,0 l/m 0,8 km/h (0 Bft) S 180 -2,5 C -2,1 C 2,3 km/h (1 Bft)
28.12.2013 04:20 -1,5 C 96 % 1009,2 hPa 0,0 l/m 1,4 km/h (1 Bft) S 180 -2,1 C -2,0 C 3,2 km/h (1 Bft)
28.12.2013 04:25 -1,8 C 96 % 1009,2 hPa 0,0 l/m 1,6 km/h (1 Bft) S 180 -2,4 C -1,8 C 1,9 km/h (1 Bft)
28.12.2013 04:30 -2,1 C 96 % 1008,9 hPa 0,0 l/m 0,8 km/h (0 Bft) S 180 -2,6 C -1,8 C 0,0 km/h (0 Bft)
28.12.2013 04:35 -1,9 C 96 % 1008,9 hPa 0,0 l/m 0,0 km/h (0 Bft) S 180 -2,5 C -2,1 C 0,0 km/h (0 Bft)
28.12.2013 04:40 -2,2 C 96 % 1008,9 hPa 0,0 l/m 0,0 km/h (0 Bft) S 180 -2,7 C -2,2 C 0,0 km/h (0 Bft)
28.12.2013 04:45 -1,2 C 96 % 1008,9 hPa 0,0 l/m 1,3 km/h (1 Bft) S 180 -1,8 C -2,1 C 6,3 km/h (2 Bft)
28.12.2013 04:50 -1,0 C 96 % 1009,1 hPa 0,0 l/m 4,5 km/h (1 Bft) S 180 -1,6 C -3,2 C 7,6 km/h (2 Bft)
28.12.2013 04:55 -0,9 C 96 % 1009,1 hPa 0,0 l/m 6,0 km/h (2 Bft) S 180 -1,5 C -3,3 C 5,8 km/h (2 Bft)
28.12.2013 05:00 -0,7 C 96 % 1009,1 hPa 0,0 l/m 5,8 km/h (2 Bft) S 180 -1,3 C -3,1 C 5,0 km/h (1 Bft)
28.12.2013 05:05 -0,7 C 96 % 1009,1 hPa 0,0 l/m 5,5 km/h (1 Bft) S 180 -1,3 C -2,8 C 5,0 km/h (1 Bft)
28.12.2013 05:10 -0,7 C 96 % 1008,8 hPa 0,0 l/m 5,0 km/h (1 Bft) S 180 -1,3 C -2,6 C 4,2 km/h (1 Bft)
28.12.2013 05:15 -1,5 C 96 % 1008,8 hPa 0,0 l/m 2,4 km/h (1 Bft) S 180 -2,1 C -1,2 C 0,0 km/h (0 Bft)
28.12.2013 05:20 -1,6 C 96 % 1008,8 hPa 0,0 l/m 0,6 km/h (0 Bft) S 180 -2,2 C -1,3 C 0,0 km/h (0 Bft)
28.12.2013 05:25 -1,8 C 96 % 1008,8 hPa 0,0 l/m 0,0 km/h (0 Bft) S 180 -2,4 C -1,5 C 0,0 km/h (0 Bft)
28.12.2013 05:30 -2,0 C 96 % 1008,4 hPa 0,0 l/m 0,2 km/h (0 Bft) S 180 -2,6 C -1,7 C 1,8 km/h (1 Bft)
28.12.2013 05:35 -1,9 C 96 % 1008,4 hPa 0,0 l/m 0,3 km/h (0 Bft) S 180 -2,5 C -1,8 C 0,0 km/h (0 Bft)
28.12.2013 05:40 -1,6 C 96 % 1008,4 hPa 0,0 l/m 0,5 km/h (0 Bft) S 180 -2,2 C -1,8 C 0,0 km/h (0 Bft)
28.12.2013 05:45 -1,8 C 96 % 1008,4 hPa 0,0 l/m 0,3 km/h (0 Bft) S 180 -2,4 C -1,7 C 0,0 km/h (0 Bft)
28.12.2013 05:50 -1,6 C 96 % 1008,2 hPa 0,0 l/m 0,3 km/h (0 Bft) S 180 -2,2 C -1,8 C 0,0 km/h (0 Bft)
28.12.2013 05:55 -1,8 C 96 % 1008,2 hPa 0,0 l/m 0,3 km/h (0 Bft) S 180 -2,4 C -1,8 C 0,0 km/h (0 Bft)
28.12.2013 06:00 -2,1 C 96 % 1008,2 hPa 0,0 l/m 0,0 km/h (0 Bft) S 180 -2,6 C -1,9 C 0,0 km/h (0 Bft)
28.12.2013 06:05 -2,3 C 96 % 1008,2 hPa 0,0 l/m 0,0 km/h (0 Bft) S 180 -2,8 C -2,0 C 0,0 km/h (0 Bft)
28.12.2013 06:10 -2,0 C 96 % 1008,1 hPa 0,0 l/m 0,5 km/h (0 Bft) S 180 -2,6 C -2,2 C 4,7 km/h (1 Bft)
28.12.2013 06:15 -1,6 C 96 % 1008,1 hPa 0,0 l/m 1,6 km/h (1 Bft) S 180 -2,2 C -2,0 C 0,0 km/h (0 Bft)
28.12.2013 06:20 -1,8 C 96 % 1008,1 hPa 0,0 l/m 1,3 km/h (1 Bft) S 180 -2,4 C -2,0 C 0,0 km/h (0 Bft)
28.12.2013 06:25 -2,4 C 96 % 1008,1 hPa 0,0 l/m 0,5 km/h (0 Bft) S 180 -2,9 C -2,1 C 0,0 km/h (0 Bft)
28.12.2013 06:30 -2,0 C 96 % 1008,2 hPa 0,0 l/m 0,2 km/h (0 Bft) S 180 -2,6 C -2,3 C 0,0 km/h (0 Bft)
28.12.2013 06:35 -2,2 C 96 % 1008,2 hPa 0,0 l/m 0,2 km/h (0 Bft) S 180 -2,7 C -2,2 C 0,0 km/h (0 Bft)
28.12.2013 06:40 -2,4 C 96 % 1008,2 hPa 0,0 l/m 0,0 km/h (0 Bft) S 180 -2,9 C -2,2 C 0,0 km/h (0 Bft)
28.12.2013 06:45 -2,0 C 96 % 1008,2 hPa 0,0 l/m 0,0 km/h (0 Bft) S 180 -2,6 C -2,3 C 0,0 km/h (0 Bft)
28.12.2013 06:50 -1,7 C 96 % 1008,4 hPa 0,0 l/m 1,4 km/h (1 Bft) S 180 -2,3 C -2,2 C 4,3 km/h (1 Bft)
28.12.2013 06:55 -1,7 C 96 % 1008,4 hPa 0,0 l/m 1,8 km/h (1 Bft) S 180 -2,3 C -1,9 C 0,0 km/h (0 Bft)
28.12.2013 07:00 -2,1 C 96 % 1008,4 hPa 0,0 l/m 1,8 km/h (1 Bft) S 180 -2,6 C -1,9 C 2,6 km/h (1 Bft)
28.12.2013 07:05 -2,0 C 96 % 1008,4 hPa 0,0 l/m 1,1 km/h (1 Bft) S 180 -2,6 C -2,2 C 2,6 km/h (1 Bft)
28.12.2013 07:10 -1,9 C 96 % 1008,0 hPa 0,0 l/m 1,6 km/h (1 Bft) S 180 -2,5 C -2,1 C 2,1 km/h (1 Bft)
28.12.2013 07:15 -1,7 C 96 % 1008,0 hPa 0,0 l/m 2,9 km/h (1 Bft) S 180 -2,3 C -2,7 C 9,0 km/h (2 Bft)
28.12.2013 07:20 -1,3 C 96 % 1008,0 hPa 0,0 l/m 3,4 km/h (1 Bft) S 180 -1,9 C -2,6 C 2,9 km/h (1 Bft)
28.12.2013 07:25 -1,6 C 96 % 1008,0 hPa 0,0 l/m 3,9 km/h (1 Bft) S 180 -2,2 C -2,9 C 4,2 km/h (1 Bft)
28.12.2013 07:30 -1,2 C 96 % 1007,9 hPa 0,0 l/m 2,7 km/h (1 Bft) S 180 -1,8 C -2,1 C 0,0 km/h (0 Bft)
28.12.2013 07:35 -1,7 C 96 % 1007,9 hPa 0,0 l/m 1,6 km/h (1 Bft) S 180 -2,3 C -1,8 C 0,0 km/h (0 Bft)
28.12.2013 07:40 -1,3 C 96 % 1007,9 hPa 0,0 l/m 1,1 km/h (1 Bft) S 180 -1,9 C -1,9 C 5,3 km/h (1 Bft)
28.12.2013 07:45 -1,7 C 96 % 1007,9 hPa 0,0 l/m 1,1 km/h (1 Bft) S 180 -2,3 C -1,8 C 0,0 km/h (0 Bft)
28.12.2013 07:50 -2,0 C 96 % 1007,8 hPa 0,0 l/m 0,6 km/h (0 Bft) S 180 -2,6 C -2,0 C 0,0 km/h (0 Bft)
28.12.2013 07:55 -1,9 C 96 % 1007,8 hPa 0,0 l/m 0,2 km/h (0 Bft) S 180 -2,5 C -2,0 C 0,0 km/h (0 Bft)
28.12.2013 08:00 -1,7 C 96 % 1007,8 hPa 0,0 l/m 0,2 km/h (0 Bft) S 180 -2,3 C -1,9 C 0,0 km/h (0 Bft)
28.12.2013 08:05 -2,1 C 96 % 1007,8 hPa 0,0 l/m 0,3 km/h (0 Bft) S 180 -2,6 C -1,9 C 0,0 km/h (0 Bft)
28.12.2013 08:10 -2,0 C 96 % 1007,9 hPa 0,0 l/m 1,0 km/h (0 Bft) S 180 -2,6 C -2,0 C 6,1 km/h (2 Bft)
28.12.2013 08:15 -1,8 C 96 % 1007,9 hPa 0,0 l/m 1,1 km/h (1 Bft) S 180 -2,4 C -1,9 C 0,0 km/h (0 Bft)
28.12.2013 08:20 -1,6 C 96 % 1007,9 hPa 0,0 l/m 1,1 km/h (1 Bft) S 180 -2,2 C -1,9 C 4,8 km/h (1 Bft)
28.12.2013 08:25 -1,3 C 96 % 1007,9 hPa 0,0 l/m 1,3 km/h (1 Bft) S 180 -1,9 C -1,8 C 4,0 km/h (1 Bft)
28.12.2013 08:30 -1,9 C 96 % 1007,9 hPa 0,0 l/m 2,7 km/h (1 Bft) S 180 -2,5 C -2,3 C 4,2 km/h (1 Bft)
28.12.2013 08:35 -2,3 C 96 % 1007,9 hPa 0,0 l/m 1,6 km/h (1 Bft) S 180 -2,8 C -2,2 C 0,0 km/h (0 Bft)
28.12.2013 08:40 -2,1 C 96 % 1007,9 hPa 0,0 l/m 1,0 km/h (0 Bft) S 180 -2,6 C -2,3 C 2,3 km/h (1 Bft)
28.12.2013 08:45 -1,3 C 96 % 1007,9 hPa 0,0 l/m 1,9 km/h (1 Bft) S 180 -1,9 C -2,1 C 4,8 km/h (1 Bft)
28.12.2013 08:50 -1,9 C 96 % 1008,1 hPa 0,0 l/m 2,6 km/h (1 Bft) S 180 -2,5 C -2,1 C 0,0 km/h (0 Bft)
28.12.2013 08:55 -1,4 C 96 % 1008,1 hPa 0,0 l/m 1,6 km/h (1 Bft) S 180 -2,0 C -2,0 C 4,3 km/h (1 Bft)
28.12.2013 09:00 -1,6 C 96 % 1008,1 hPa 0,0 l/m 1,3 km/h (1 Bft) S 180 -2,2 C -2,0 C 0,0 km/h (0 Bft)
28.12.2013 09:03 -1,9 C 96 % 1008,1 hPa 0,0 l/m 1,6 km/h (1 Bft) S 180 -2,5 C -1,9 C 1,9 km/h (1 Bft)
28.12.2013 09:05 -1,9 C 96 % 1008,1 hPa 0,0 l/m 1,6 km/h (1 Bft) S 180 -2,5 C -1,9 C 1,9 km/h (1 Bft)
28.12.2013 09:10 -1,4 C 96 % 1007,9 hPa 0,0 l/m 1,6 km/h (1 Bft) S 180 -2,0 C -1,8 C 3,4 km/h (1 Bft)
28.12.2013 09:15 -0,7 C 96 % 1007,9 hPa 0,0 l/m 4,5 km/h (1 Bft) S 180 -1,3 C -2,9 C 7,2 km/h (2 Bft)
28.12.2013 09:20 -0,9 C 96 % 1007,9 hPa 0,0 l/m 4,7 km/h (1 Bft) S 180 -1,5 C -2,8 C 0,0 km/h (0 Bft)
28.12.2013 09:25 -1,7 C 96 % 1007,9 hPa 0,0 l/m 3,1 km/h (1 Bft) S 180 -2,3 C -1,8 C 3,2 km/h (1 Bft)
28.12.2013 09:30 -1,7 C 96 % 1007,9 hPa 0,0 l/m 0,8 km/h (0 Bft) S 180 -2,3 C -1,5 C 1,9 km/h (1 Bft)
28.12.2013 09:35 -0,6 C 96 % 1007,9 hPa 0,0 l/m 1,6 km/h (1 Bft) S 180 -1,2 C -1,3 C 5,8 km/h (2 Bft)
28.12.2013 09:40 -0,5 C 96 % 1007,9 hPa 0,0 l/m 2,3 km/h (1 Bft) S 180 -1,1 C -1,0 C 0,0 km/h (0 Bft)
28.12.2013 09:45 -0,6 C 96 % 1007,9 hPa 0,0 l/m 2,1 km/h (1 Bft) S 180 -1,2 C -0,9 C 0,0 km/h (0 Bft)
28.12.2013 09:50 -0,7 C 96 % 1008,2 hPa 0,0 l/m 1,1 km/h (1 Bft) S 180 -1,3 C -0,9 C 4,3 km/h (1 Bft)
28.12.2013 09:55 -0,2 C 96 % 1008,2 hPa 0,0 l/m 1,9 km/h (1 Bft) S 180 -0,8 C -0,7 C 2,6 km/h (1 Bft)
28.12.2013 10:00 -0,6 C 96 % 1008,2 hPa 0,0 l/m 1,9 km/h (1 Bft) S 180 -1,2 C -0,8 C 1,8 km/h (1 Bft)
28.12.2013 10:05 -0,2 C 96 % 1008,2 hPa 0,0 l/m 1,8 km/h (1 Bft) S 180 -0,8 C -0,8 C 2,6 km/h (1 Bft)
28.12.2013 10:10 -0,3 C 96 % 1008,4 hPa 0,0 l/m 2,1 km/h (1 Bft) S 180 -0,9 C -0,5 C 3,9 km/h (1 Bft)
28.12.2013 10:15 -0,3 C 96 % 1008,4 hPa 0,0 l/m 1,6 km/h (1 Bft) S 180 -0,9 C -0,4 C 0,0 km/h (0 Bft)
28.12.2013 10:20 -0,3 C 96 % 1008,4 hPa 0,0 l/m 0,8 km/h (0 Bft) S 180 -0,9 C -0,3 C 0,0 km/h (0 Bft)
28.12.2013 10:25 0,1 C 96 % 1008,4 hPa 0,0 l/m 0,3 km/h (0 Bft) S 180 -0,5 C -0,2 C 2,3 km/h (1 Bft)
28.12.2013 10:30 0,0 C 96 % 1008,5 hPa 0,0 l/m 1,0 km/h (0 Bft) S 180 -0,6 C 0,0 C 0,0 km/h (0 Bft)
28.12.2013 10:35 0,2 C 96 % 1008,5 hPa 0,0 l/m 0,8 km/h (0 Bft) S 180 -0,4 C 0,1 C 2,6 km/h (1 Bft)
28.12.2013 10:40 0,3 C 97 % 1008,5 hPa 0,0 l/m 1,0 km/h (0 Bft) S 180 -0,1 C 0,2 C 1,8 km/h (1 Bft)
28.12.2013 10:45 0,3 C 97 % 1008,5 hPa 0,0 l/m 1,0 km/h (0 Bft) S 180 -0,1 C 0,3 C 0,0 km/h (0 Bft)
28.12.2013 10:50 0,4 C 97 % 1008,6 hPa 0,0 l/m 0,5 km/h (0 Bft) S 180 -0,0 C 0,4 C 3,4 km/h (1 Bft)
28.12.2013 10:55 0,8 C 97 % 1008,6 hPa 0,0 l/m 2,3 km/h (1 Bft) S 180 0,4 C 0,5 C 3,5 km/h (1 Bft)
28.12.2013 11:00 0,8 C 97 % 1008,6 hPa 0,0 l/m 2,6 km/h (1 Bft) S 180 0,4 C 0,6 C 1,8 km/h (1 Bft)
28.12.2013 11:05 1,0 C 96 % 1008,6 hPa 0,0 l/m 1,1 km/h (1 Bft) S 180 0,4 C 1,1 C 2,7 km/h (1 Bft)
28.12.2013 11:10 1,0 C 96 % 1008,5 hPa 0,0 l/m 0,5 km/h (0 Bft) S 180 0,4 C 1,4 C 0,0 km/h (0 Bft)
28.12.2013 11:15 1,2 C 96 % 1008,5 hPa 0,0 l/m 0,6 km/h (0 Bft) S 180 0,6 C 1,9 C 1,9 km/h (1 Bft)
28.12.2013 11:20 1,3 C 96 % 1008,5 hPa 0,0 l/m 0,5 km/h (0 Bft) S 180 0,7 C 2,2 C 0,0 km/h (0 Bft)
28.12.2013 11:25 1,4 C 96 % 1008,5 hPa 0,0 l/m 0,5 km/h (0 Bft) S 180 0,8 C 2,4 C 0,0 km/h (0 Bft)
28.12.2013 11:30 1,7 C 96 % 1008,2 hPa 0,0 l/m 0,8 km/h (0 Bft) SO 135 1,1 C 2,5 C 3,4 km/h (1 Bft)
28.12.2013 11:35 2,3 C 96 % 1008,2 hPa 0,0 l/m 1,4 km/h (1 Bft) O-SO 112 1,7 C 2,8 C 0,0 km/h (0 Bft)
28.12.2013 11:40 2,3 C 96 % 1008,2 hPa 0,0 l/m 1,0 km/h (0 Bft) O-SO 112 1,7 C 3,0 C 1,6 km/h (1 Bft)
28.12.2013 11:45 2,6 C 96 % 1008,2 hPa 0,0 l/m 0,3 km/h (0 Bft) O-SO 112 2,0 C 3,1 C 0,0 km/h (0 Bft)
28.12.2013 11:50 2,6 C 96 % 1008,2 hPa 0,0 l/m 0,0 km/h (0 Bft) SO 135 2,0 C 3,4 C 1,6 km/h (1 Bft)
28.12.2013 11:55 3,4 C 96 % 1008,2 hPa 0,0 l/m 1,1 km/h (1 Bft) O-NO 67 2,8 C 3,6 C 2,3 km/h (1 Bft)
28.12.2013 12:00 3,2 C 96 % 1008,2 hPa 0,0 l/m 1,4 km/h (1 Bft) O-SO 112 2,6 C 3,9 C 0,0 km/h (0 Bft)
28.12.2013 12:05 3,7 C 96 % 1008,2 hPa 0,0 l/m 1,3 km/h (1 Bft) NO 45 3,1 C 4,1 C 3,5 km/h (1 Bft)
28.12.2013 12:10 3,8 C 96 % 1008,1 hPa 0,0 l/m 1,8 km/h (1 Bft) O-SO 112 3,2 C 4,3 C 6,4 km/h (2 Bft)
28.12.2013 12:15 4,6 C 95 % 1008,1 hPa 0,0 l/m 3,4 km/h (1 Bft) NO 45 3,9 C 5,1 C 1,8 km/h (1 Bft)
28.12.2013 12:20 4,2 C 95 % 1008,1 hPa 0,0 l/m 2,6 km/h (1 Bft) O 90 3,5 C 5,6 C 0,0 km/h (0 Bft)
28.12.2013 12:25 4,9 C 95 % 1008,1 hPa 0,0 l/m 0,8 km/h (0 Bft) O 90 4,2 C 5,7 C 0,0 km/h (0 Bft)
28.12.2013 12:30 5,1 C 95 % 1007,9 hPa 0,0 l/m 1,6 km/h (1 Bft) O-SO 112 4,4 C 6,0 C 3,1 km/h (1 Bft)
28.12.2013 12:35 5,0 C 95 % 1007,9 hPa 0,0 l/m 2,4 km/h (1 Bft) O-NO 67 4,3 C 6,3 C 0,0 km/h (0 Bft)
28.12.2013 12:40 5,4 C 94 % 1007,9 hPa 0,0 l/m 2,6 km/h (1 Bft) NO 45 4,5 C 6,5 C 3,1 km/h (1 Bft)
28.12.2013 12:45 5,5 C 93 % 1007,9 hPa 0,0 l/m 2,1 km/h (1 Bft) SO 135 4,5 C 6,6 C 2,7 km/h (1 Bft)
28.12.2013 12:50 5,2 C 93 % 1007,6 hPa 0,0 l/m 1,4 km/h (1 Bft) O-SO 112 4,2 C 6,7 C 0,0 km/h (0 Bft)
28.12.2013 12:55 5,0 C 92 % 1007,6 hPa 0,0 l/m 0,8 km/h (0 Bft) O-SO 112 3,8 C 6,8 C 3,7 km/h (1 Bft)
28.12.2013 13:00 5,7 C 92 % 1007,6 hPa 0,0 l/m 1,4 km/h (1 Bft) O-NO 67 4,5 C 7,0 C 0,0 km/h (0 Bft)
28.12.2013 13:05 6,0 C 90 % 1007,6 hPa 0,0 l/m 2,1 km/h (1 Bft) O 90 4,5 C 7,2 C 6,0 km/h (2 Bft)
28.12.2013 13:10 6,2 C 90 % 1007,6 hPa 0,0 l/m 3,1 km/h (1 Bft) NW 315 4,7 C 7,5 C 4,8 km/h (1 Bft)
28.12.2013 13:15 6,6 C 89 % 1007,6 hPa 0,0 l/m 4,5 km/h (1 Bft) O 90 4,9 C 7,3 C 6,1 km/h (2 Bft)
28.12.2013 13:20 7,0 C 88 % 1007,6 hPa 0,0 l/m 4,5 km/h (1 Bft) O-SO 112 5,2 C 7,8 C 0,0 km/h (0 Bft)
28.12.2013 13:25 6,9 C 86 % 1007,6 hPa 0,0 l/m 4,5 km/h (1 Bft) SO 135 4,7 C 8,1 C 4,0 km/h (1 Bft)
28.12.2013 13:30 6,3 C 86 % 1007,6 hPa 0,0 l/m 1,9 km/h (1 Bft) O-SO 112 4,1 C 8,6 C 2,1 km/h (1 Bft)
28.12.2013 13:35 6,6 C 86 % 1007,6 hPa 0,0 l/m 1,1 km/h (1 Bft) O 90 4,4 C 8,5 C 0,0 km/h (0 Bft)
28.12.2013 13:40 6,8 C 86 % 1007,6 hPa 0,0 l/m 1,3 km/h (1 Bft) S-SO 157 4,6 C 8,7 C 0,0 km/h (0 Bft)
28.12.2013 13:45 6,6 C 85 % 1007,6 hPa 0,0 l/m 0,8 km/h (0 Bft) O-SO 112 4,3 C 8,6 C 3,2 km/h (1 Bft)
28.12.2013 13:50 6,8 C 85 % 1007,9 hPa 0,0 l/m 2,6 km/h (1 Bft) S 180 4,5 C 8,6 C 5,8 km/h (2 Bft)
28.12.2013 13:55 6,8 C 85 % 1007,9 hPa 0,0 l/m 4,3 km/h (1 Bft) SO 135 4,5 C 8,4 C 4,5 km/h (1 Bft)
28.12.2013 14:00 6,9 C 84 % 1007,9 hPa 0,0 l/m 4,0 km/h (1 Bft) SO 135 4,4 C 8,5 C 2,9 km/h (1 Bft)
28.12.2013 14:03 7,1 C 81 % 1007,9 hPa 0,0 l/m 3,1 km/h (1 Bft) O-SO 112 4,1 C 8,7 C 4,3 km/h (1 Bft)
28.12.2013 14:05 7,1 C 81 % 1007,9 hPa 0,0 l/m 3,1 km/h (1 Bft) O-SO 112 4,1 C 8,7 C 4,3 km/h (1 Bft)
28.12.2013 14:10 7,1 C 78 % 1008,2 hPa 0,0 l/m 3,9 km/h (1 Bft) S-SO 157 3,5 C 8,7 C 4,3 km/h (1 Bft)
28.12.2013 14:15 6,9 C 77 % 1008,2 hPa 0,0 l/m 4,7 km/h (1 Bft) NW 315 3,2 C 8,3 C 7,1 km/h (2 Bft)
28.12.2013 14:20 7,1 C 71 % 1008,2 hPa 0,0 l/m 5,5 km/h (1 Bft) O 90 2,2 C 7,9 C 11,4 km/h (2 Bft)
28.12.2013 14:25 6,9 C 74 % 1008,2 hPa 0,0 l/m 7,2 km/h (2 Bft) O-NO 67 2,6 C 6,8 C 6,6 km/h (2 Bft)
28.12.2013 14:30 6,8 C 74 % 1008,3 hPa 0,0 l/m 7,4 km/h (2 Bft) O 90 2,5 C 6,4 C 7,2 km/h (2 Bft)
28.12.2013 14:35 6,9 C 74 % 1008,3 hPa 0,0 l/m 6,6 km/h (2 Bft) O-SO 112 2,6 C 7,1 C 7,2 km/h (2 Bft)
28.12.2013 14:40 6,9 C 72 % 1008,3 hPa 0,0 l/m 6,0 km/h (2 Bft) O-SO 112 2,2 C 7,3 C 7,4 km/h (2 Bft)
28.12.2013 14:45 6,5 C 78 % 1008,3 hPa 0,0 l/m 5,0 km/h (1 Bft) S-SO 157 2,9 C 7,5 C 3,7 km/h (1 Bft)
28.12.2013 14:50 6,4 C 78 % 1008,4 hPa 0,0 l/m 3,7 km/h (1 Bft) SO 135 2,8 C 9,0 C 5,0 km/h (1 Bft)
28.12.2013 14:55 6,2 C 80 % 1008,4 hPa 0,0 l/m 1,4 km/h (1 Bft) O-SO 112 3,0 C 10,3 C 1,6 km/h (1 Bft)
28.12.2013 15:00 6,2 C 81 % 1008,4 hPa 0,0 l/m 0,5 km/h (0 Bft) SO 135 3,2 C 9,9 C 0,0 km/h (0 Bft)
28.12.2013 15:05 6,1 C 79 % 1008,4 hPa 0,0 l/m 1,3 km/h (1 Bft) SO 135 2,7 C 9,7 C 4,2 km/h (1 Bft)
28.12.2013 15:10 6,2 C 79 % 1008,7 hPa 0,0 l/m 3,2 km/h (1 Bft) S-SO 157 2,8 C 9,6 C 5,5 km/h (1 Bft)
28.12.2013 15:15 6,1 C 78 % 1008,7 hPa 0,0 l/m 4,0 km/h (1 Bft) S-SO 157 2,6 C 8,7 C 4,5 km/h (1 Bft)
28.12.2013 15:20 5,9 C 79 % 1008,7 hPa 0,0 l/m 3,9 km/h (1 Bft) S 180 2,5 C 8,3 C 4,3 km/h (1 Bft)
28.12.2013 15:25 5,8 C 79 % 1008,7 hPa 0,0 l/m 3,2 km/h (1 Bft) SO 135 2,4 C 7,9 C 3,1 km/h (1 Bft)
28.12.2013 15:30 5,7 C 79 % 1008,7 hPa 0,0 l/m 2,6 km/h (1 Bft) O-NO 67 2,3 C 7,2 C 4,5 km/h (1 Bft)
28.12.2013 15:35 5,9 C 78 % 1008,7 hPa 0,0 l/m 3,2 km/h (1 Bft) O 90 2,4 C 6,8 C 5,3 km/h (1 Bft)
28.12.2013 15:40 5,9 C 77 % 1008,7 hPa 0,0 l/m 5,0 km/h (1 Bft) NO 45 2,2 C 5,8 C 5,8 km/h (2 Bft)
28.12.2013 15:45 5,8 C 76 % 1008,7 hPa 0,0 l/m 5,3 km/h (1 Bft) O 90 1,9 C 5,4 C 6,0 km/h (2 Bft)
28.12.2013 15:50 5,6 C 77 % 1008,5 hPa 0,0 l/m 5,1 km/h (1 Bft) NO 45 1,9 C 5,2 C 4,0 km/h (1 Bft)
28.12.2013 15:55 5,7 C 77 % 1008,5 hPa 0,0 l/m 4,5 km/h (1 Bft) NO 45 2,0 C 5,2 C 3,2 km/h (1 Bft)
28.12.2013 16:00 4,7 C 78 % 1008,5 hPa 0,0 l/m 2,6 km/h (1 Bft) N-NO 22 1,2 C 5,6 C 0,0 km/h (0 Bft)
28.12.2013 16:05 4,6 C 79 % 1008,5 hPa 0,0 l/m 1,6 km/h (1 Bft) O-NO 67 1,3 C 5,2 C 4,3 km/h (1 Bft)
28.12.2013 16:10 4,6 C 79 % 1008,6 hPa 0,0 l/m 1,3 km/h (1 Bft) O-SO 112 1,3 C 4,8 C 0,0 km/h (0 Bft)
28.12.2013 16:15 3,6 C 79 % 1008,6 hPa 0,0 l/m 1,0 km/h (0 Bft) S-SO 157 0,3 C 4,2 C 0,0 km/h (0 Bft)
28.12.2013 16:20 3,4 C 80 % 1008,6 hPa 0,0 l/m 0,6 km/h (0 Bft) O-SO 112 0,3 C 3,9 C 2,3 km/h (1 Bft)
28.12.2013 16:25 4,0 C 81 % 1008,6 hPa 0,0 l/m 1,9 km/h (1 Bft) NO 45 1,0 C 3,6 C 4,2 km/h (1 Bft)
28.12.2013 16:30 3,9 C 80 % 1008,5 hPa 0,0 l/m 3,4 km/h (1 Bft) O 90 0,8 C 3,1 C 3,5 km/h (1 Bft)
28.12.2013 16:35 3,9 C 80 % 1008,5 hPa 0,0 l/m 4,5 km/h (1 Bft) O 90 0,8 C 2,2 C 5,5 km/h (1 Bft)
28.12.2013 16:40 3,8 C 80 % 1008,5 hPa 0,0 l/m 4,5 km/h (1 Bft) O 90 0,7 C 2,0 C 3,2 km/h (1 Bft)
28.12.2013 16:45 2,8 C 81 % 1008,5 hPa 0,0 l/m 4,0 km/h (1 Bft) O-SO 112 -0,1 C 1,9 C 8,9 km/h (2 Bft)
28.12.2013 16:50 2,1 C 81 % 1008,4 hPa 0,0 l/m 2,6 km/h (1 Bft) N-NO 22 -0,8 C 2,4 C 0,0 km/h (0 Bft)
28.12.2013 16:55 2,4 C 83 % 1008,4 hPa 0,0 l/m 1,8 km/h (1 Bft) N-NO 22 -0,2 C 1,9 C 0,0 km/h (0 Bft)
28.12.2013 17:00 2,0 C 83 % 1008,4 hPa 0,0 l/m 1,6 km/h (1 Bft) O-SO 112 -0,6 C 1,6 C 4,7 km/h (1 Bft)
28.12.2013 17:05 1,8 C 84 % 1008,4 hPa 0,0 l/m 2,3 km/h (1 Bft) O-NO 67 -0,6 C 1,6 C 0,0 km/h (0 Bft)
28.12.2013 17:10 1,3 C 84 % 1008,1 hPa 0,0 l/m 1,6 km/h (1 Bft) O-NO 67 -1,1 C 1,1 C 0,0 km/h (0 Bft)
28.12.2013 17:15 0,9 C 85 % 1008,1 hPa 0,0 l/m 0,0 km/h (0 Bft) NO 45 -1,3 C 0,8 C 0,0 km/h (0 Bft)
28.12.2013 17:20 0,8 C 86 % 1008,1 hPa 0,0 l/m 0,0 km/h (0 Bft) SO 135 -1,3 C 0,6 C 0,0 km/h (0 Bft)
28.12.2013 17:25 2,1 C 86 % 1008,1 hPa 0,0 l/m 1,1 km/h (1 Bft) O-NO 67 0,0 C 0,5 C 6,6 km/h (2 Bft)
28.12.2013 17:30 1,0 C 85 % 1007,9 hPa 0,0 l/m 1,4 km/h (1 Bft) N-NW 337 -1,2 C 0,6 C 0,0 km/h (0 Bft)
28.12.2013 17:35 1,5 C 86 % 1007,9 hPa 0,0 l/m 1,3 km/h (1 Bft) NO 45 -0,6 C 0,3 C 5,0 km/h (1 Bft)
28.12.2013 17:40 1,4 C 86 % 1007,9 hPa 0,0 l/m 1,9 km/h (1 Bft) NO 45 -0,7 C 0,4 C 3,5 km/h (1 Bft)
28.12.2013 17:45 1,2 C 86 % 1007,9 hPa 0,0 l/m 1,9 km/h (1 Bft) NO 45 -0,9 C 0,6 C 0,0 km/h (0 Bft)
28.12.2013 17:50 0,5 C 86 % 1007,6 hPa 0,0 l/m 0,6 km/h (0 Bft) S 180 -1,6 C 0,5 C 0,0 km/h (0 Bft)
28.12.2013 17:55 0,1 C 86 % 1007,6 hPa 0,0 l/m 0,0 km/h (0 Bft) S 180 -2,0 C 0,1 C 0,0 km/h (0 Bft)
28.12.2013 18:00 0,1 C 86 % 1007,6 hPa 0,0 l/m 0,0 km/h (0 Bft) O-SO 112 -2,0 C -0,2 C 0,0 km/h (0 Bft)
28.12.2013 18:05 1,1 C 87 % 1007,6 hPa 0,0 l/m 0,3 km/h (0 Bft) O-NO 67 -0,8 C -0,1 C 3,2 km/h (1 Bft)
28.12.2013 18:10 0,8 C 88 % 1007,7 hPa 0,0 l/m 0,8 km/h (0 Bft) S-SW 202 -1,0 C 0,3 C 2,6 km/h (1 Bft)
28.12.2013 18:15 0,2 C 87 % 1007,7 hPa 0,0 l/m 0,3 km/h (0 Bft) O-SO 112 -1,7 C 0,2 C 0,0 km/h (0 Bft)
28.12.2013 18:20 0,0 C 87 % 1007,7 hPa 0,0 l/m 0,3 km/h (0 Bft) SO 135 -1,9 C 0,1 C 0,0 km/h (0 Bft)
28.12.2013 18:25 0,0 C 88 % 1007,7 hPa 0,0 l/m 0,2 km/h (0 Bft) O-SO 112 -1,7 C 0,0 C 3,2 km/h (1 Bft)
28.12.2013 18:30 0,1 C 88 % 1007,9 hPa 0,0 l/m 0,8 km/h (0 Bft) O 90 -1,6 C -0,1 C 0,0 km/h (0 Bft)
28.12.2013 18:35 0,6 C 89 % 1007,9 hPa 0,0 l/m 0,5 km/h (0 Bft) NO 45 -1,0 C 0,2 C 0,0 km/h (0 Bft)
28.12.2013 18:40 0,4 C 89 % 1007,9 hPa 0,0 l/m 0,0 km/h (0 Bft) N 360 -1,2 C 0,2 C 0,0 km/h (0 Bft)
28.12.2013 18:45 -0,1 C 89 % 1007,9 hPa 0,0 l/m 0,2 km/h (0 Bft) S 180 -1,7 C 0,1 C 3,5 km/h (1 Bft)
28.12.2013 18:50 0,2 C 89 % 1007,6 hPa 0,0 l/m 1,4 km/h (1 Bft) O 90 -1,4 C -0,2 C 3,4 km/h (1 Bft)
28.12.2013 18:55 -0,1 C 90 % 1007,6 hPa 0,0 l/m 1,4 km/h (1 Bft) S 180 -1,5 C -0,4 C 0,0 km/h (0 Bft)
28.12.2013 19:00 -0,3 C 89 % 1007,6 hPa 0,0 l/m 0,6 km/h (0 Bft) S 180 -1,9 C -0,6 C 0,0 km/h (0 Bft)
28.12.2013 19:04 0,7 C 90 % 1007,6 hPa 0,0 l/m 0,5 km/h (0 Bft) O-NO 67 -0,7 C -0,8 C 5,1 km/h (1 Bft)
28.12.2013 19:05 0,7 C 90 % 1007,6 hPa 0,0 l/m 0,5 km/h (0 Bft) O-NO 67 -0,7 C -0,8 C 5,1 km/h (1 Bft)
28.12.2013 19:10 1,1 C 90 % 1007,6 hPa 0,0 l/m 1,8 km/h (1 Bft) O-SO 112 -0,4 C -0,6 C 5,0 km/h (1 Bft)
28.12.2013 19:15 1,1 C 89 % 1007,6 hPa 0,0 l/m 2,3 km/h (1 Bft) O 90 -0,5 C -0,4 C 0,0 km/h (0 Bft)
28.12.2013 19:20 0,5 C 89 % 1007,6 hPa 0,0 l/m 1,6 km/h (1 Bft) O 90 -1,1 C -0,4 C 1,9 km/h (1 Bft)
28.12.2013 19:25 0,1 C 89 % 1007,6 hPa 0,0 l/m 1,4 km/h (1 Bft) O 90 -1,5 C -0,5 C 2,7 km/h (1 Bft)
28.12.2013 19:30 0,4 C 89 % 1007,4 hPa 0,0 l/m 1,0 km/h (0 Bft) S-SO 157 -1,2 C -0,7 C 0,0 km/h (0 Bft)
28.12.2013 19:35 -0,9 C 88 % 1007,4 hPa 0,0 l/m 0,3 km/h (0 Bft) O-SO 112 -2,6 C -1,0 C 0,0 km/h (0 Bft)
28.12.2013 19:40 -1,1 C 88 % 1007,4 hPa 0,0 l/m 0,0 km/h (0 Bft) NO 45 -2,8 C -1,3 C 0,0 km/h (0 Bft)
28.12.2013 19:45 -1,2 C 88 % 1007,4 hPa 0,0 l/m 0,0 km/h (0 Bft) O 90 -2,9 C -1,5 C 0,0 km/h (0 Bft)
28.12.2013 19:50 -1,5 C 88 % 1007,5 hPa 0,0 l/m 0,2 km/h (0 Bft) S-SO 157 -3,2 C -1,6 C 0,0 km/h (0 Bft)
28.12.2013 19:55 -1,3 C 88 % 1007,5 hPa 0,0 l/m 0,5 km/h (0 Bft) O-SO 112 -3,0 C -1,7 C 3,4 km/h (1 Bft)
28.12.2013 20:00 0,5 C 90 % 1007,5 hPa 0,0 l/m 2,1 km/h (1 Bft) O 90 -0,9 C -1,5 C 5,5 km/h (1 Bft)
28.12.2013 20:05 0,7 C 89 % 1007,5 hPa 0,0 l/m 4,3 km/h (1 Bft) NO 45 -0,9 C -2,3 C 6,9 km/h (2 Bft)
28.12.2013 20:10 1,1 C 88 % 1007,8 hPa 0,0 l/m 5,6 km/h (1 Bft) O 90 -0,7 C -2,2 C 6,8 km/h (2 Bft)
28.12.2013 20:15 -0,9 C 86 % 1007,8 hPa 0,0 l/m 3,1 km/h (1 Bft) O 90 -2,9 C -0,9 C 1,8 km/h (1 Bft)
28.12.2013 20:20 -0,6 C 87 % 1007,8 hPa 0,0 l/m 1,9 km/h (1 Bft) SO 135 -2,5 C -0,9 C 0,0 km/h (0 Bft)
28.12.2013 20:25 -1,0 C 87 % 1007,8 hPa 0,0 l/m 1,4 km/h (1 Bft) O 90 -2,9 C -1,1 C 2,1 km/h (1 Bft)
28.12.2013 20:30 -0,7 C 87 % 1008,2 hPa 0,0 l/m 1,1 km/h (1 Bft) O-SO 112 -2,6 C -1,2 C 2,4 km/h (1 Bft)
28.12.2013 20:35 -1,0 C 87 % 1008,2 hPa 0,0 l/m 1,1 km/h (1 Bft) O-SO 112 -2,9 C -1,2 C 4,5 km/h (1 Bft)
28.12.2013 20:40 0,5 C 89 % 1008,2 hPa 0,0 l/m 3,2 km/h (1 Bft) S 180 -1,1 C -1,3 C 10,0 km/h (2 Bft)
28.12.2013 20:45 1,3 C 89 % 1008,2 hPa 0,0 l/m 5,6 km/h (1 Bft) SO 135 -0,3 C -1,4 C 16,4 km/h (3 Bft)
28.12.2013 20:50 1,6 C 89 % 1009,2 hPa 0,0 l/m 9,0 km/h (2 Bft) S 180 -0,0 C -3,7 C 16,7 km/h (3 Bft)
28.12.2013 20:55 2,0 C 87 % 1009,2 hPa 0,0 l/m 11,4 km/h (2 Bft) S 180 0,1 C -5,1 C 18,5 km/h (3 Bft)
28.12.2013 21:00 2,3 C 85 % 1009,2 hPa 0,0 l/m 12,2 km/h (2 Bft) S-SO 157 0,0 C -5,5 C 10,8 km/h (2 Bft)
28.12.2013 21:05 2,5 C 83 % 1009,2 hPa 0,0 l/m 13,5 km/h (3 Bft) SO 135 -0,1 C -6,4 C 23,8 km/h (4 Bft)
28.12.2013 21:10 2,6 C 80 % 1010,3 hPa 0,0 l/m 15,0 km/h (3 Bft) S 180 -0,5 C -7,2 C 16,7 km/h (3 Bft)
28.12.2013 21:15 2,7 C 79 % 1010,3 hPa 0,0 l/m 15,1 km/h (3 Bft) S 180 -0,6 C -7,2 C 24,8 km/h (4 Bft)
28.12.2013 21:20 2,6 C 78 % 1010,3 hPa 0,0 l/m 14,3 km/h (3 Bft) O 90 -0,8 C -6,7 C 22,5 km/h (4 Bft)
28.12.2013 21:25 2,7 C 77 % 1010,3 hPa 0,0 l/m 14,5 km/h (3 Bft) S-SW 202 -0,9 C -6,9 C 16,3 km/h (3 Bft)
28.12.2013 21:30 2,7 C 78 % 1011,0 hPa 0,0 l/m 11,7 km/h (2 Bft) SO 135 -0,7 C -4,2 C 7,2 km/h (2 Bft)
28.12.2013 21:35 2,7 C 78 % 1011,0 hPa 0,0 l/m 8,9 km/h (2 Bft) S 180 -0,7 C -1,4 C 12,1 km/h (2 Bft)
28.12.2013 21:40 2,9 C 78 % 1011,0 hPa 0,0 l/m 8,4 km/h (2 Bft) O 90 -0,5 C -0,7 C 7,9 km/h (2 Bft)
28.12.2013 21:45 2,9 C 78 % 1011,0 hPa 0,0 l/m 7,7 km/h (2 Bft) S 180 -0,5 C 0,0 C 6,9 km/h (2 Bft)
28.12.2013 21:50 3,0 C 78 % 1011,2 hPa 0,0 l/m 6,4 km/h (2 Bft) SO 135 -0,5 C 1,7 C 6,8 km/h (2 Bft)
28.12.2013 21:55 2,9 C 78 % 1011,2 hPa 0,0 l/m 6,0 km/h (2 Bft) SO 135 -0,5 C 1,9 C 6,9 km/h (2 Bft)
28.12.2013 22:00 3,0 C 78 % 1011,2 hPa 0,0 l/m 6,6 km/h (2 Bft) S 180 -0,5 C 1,5 C 11,9 km/h (2 Bft)
28.12.2013 22:05 3,0 C 78 % 1011,2 hPa 0,0 l/m 7,1 km/h (2 Bft) S 180 -0,5 C 1,0 C 8,7 km/h (2 Bft)
28.12.2013 22:10 3,0 C 78 % 1011,6 hPa 0,0 l/m 7,2 km/h (2 Bft) S 180 -0,5 C 1,1 C 5,0 km/h (1 Bft)
28.12.2013 22:15 3,0 C 79 % 1011,6 hPa 0,0 l/m 7,1 km/h (2 Bft) S-SO 157 -0,3 C 1,4 C 6,1 km/h (2 Bft)
28.12.2013 22:20 3,1 C 79 % 1011,6 hPa 0,0 l/m 6,8 km/h (2 Bft) N 360 -0,2 C 1,9 C 7,6 km/h (2 Bft)
28.12.2013 22:25 3,2 C 79 % 1011,6 hPa 0,0 l/m 7,4 km/h (2 Bft) S 180 -0,1 C 1,1 C 8,9 km/h (2 Bft)
28.12.2013 22:30 3,2 C 79 % 1011,7 hPa 0,0 l/m 7,7 km/h (2 Bft) SO 135 -0,1 C 0,8 C 6,4 km/h (2 Bft)
28.12.2013 22:35 3,3 C 80 % 1011,7 hPa 0,0 l/m 7,1 km/h (2 Bft) O 90 0,2 C 1,6 C 4,5 km/h (1 Bft)
28.12.2013 22:40 3,4 C 80 % 1011,7 hPa 0,0 l/m 7,2 km/h (2 Bft) S-SO 157 0,3 C 1,4 C 10,8 km/h (2 Bft)
28.12.2013 22:45 3,3 C 80 % 1011,7 hPa 0,0 l/m 7,9 km/h (2 Bft) S 180 0,2 C 0,4 C 10,8 km/h (2 Bft)
28.12.2013 22:50 3,1 C 81 % 1012,0 hPa 0,0 l/m 8,4 km/h (2 Bft) S 180 0,2 C -0,3 C 8,0 km/h (2 Bft)
28.12.2013 22:55 3,0 C 82 % 1012,0 hPa 0,0 l/m 7,9 km/h (2 Bft) S 180 0,2 C -0,3 C 10,5 km/h (2 Bft)
28.12.2013 23:00 3,0 C 83 % 1012,0 hPa 0,0 l/m 7,9 km/h (2 Bft) S-SW 202 0,4 C -0,3 C 7,6 km/h (2 Bft)
28.12.2013 23:05 2,8 C 85 % 1012,0 hPa 0,0 l/m 8,4 km/h (2 Bft) W-NW 292 0,5 C -1,1 C 8,7 km/h (2 Bft)
28.12.2013 23:10 2,8 C 86 % 1012,4 hPa 0,0 l/m 9,0 km/h (2 Bft) S-SO 157 0,7 C -2,0 C 7,9 km/h (2 Bft)
28.12.2013 23:15 2,5 C 88 % 1012,4 hPa 0,0 l/m 8,5 km/h (2 Bft) S-SO 157 0,7 C -1,7 C 9,2 km/h (2 Bft)
28.12.2013 23:20 2,4 C 89 % 1012,4 hPa 0,0 l/m 7,7 km/h (2 Bft) S 180 0,8 C -0,8 C 9,5 km/h (2 Bft)
28.12.2013 23:25 2,3 C 90 % 1012,4 hPa 0,0 l/m 7,2 km/h (2 Bft) S-SO 157 0,8 C -0,1 C 9,7 km/h (2 Bft)
28.12.2013 23:30 2,3 C 91 % 1012,9 hPa 0,0 l/m 7,1 km/h (2 Bft) S-SO 157 1,0 C -0,0 C 11,7 km/h (2 Bft)
28.12.2013 23:35 2,3 C 92 % 1012,9 hPa 0,0 l/m 6,3 km/h (2 Bft) O 90 1,1 C 0,8 C 4,0 km/h (1 Bft)
28.12.2013 23:40 2,4 C 92 % 1012,9 hPa 0,0 l/m 4,8 km/h (1 Bft) S 180 1,2 C 1,3 C 5,0 km/h (1 Bft)
28.12.2013 23:45 2,4 C 93 % 1012,9 hPa 0,0 l/m 4,0 km/h (1 Bft) S-SO 157 1,4 C 1,7 C 5,1 km/h (1 Bft)
28.12.2013 23:50 2,4 C 93 % 1012,8 hPa 0,0 l/m 3,9 km/h (1 Bft) S-SO 157 1,4 C 1,9 C 3,4 km/h (1 Bft)
28.12.2013 23:55 2,4 C 93 % 1012,8 hPa 0,0 l/m 4,0 km/h (1 Bft) NO 45 1,4 C 1,8 C 3,2 km/h (1 Bft)
_ Min-Zeit 02:00 14:20 19:45 - 19:45 - - 02:00 21:10 20:20
Minimum _ -2,8 C 71 % 1007,4 hPa - 0,0 km/h (0 Bft) - - -3,3 C -7,2 C 0,0 km/h (0 Bft)
_ Max-Zeit 14:20 11:00 23:45 23:55 21:15 - - 13:20 14:55 21:15
Maximum _ 7,1 C 97 % 1012,9 hPa 0,0 l/m 15,1 km/h
S (3 Bft)
- - 5,2 C 10,3 C 24,8 km/h
S (4 Bft)
Durchschnitt _ 0,8 C 90 % 1008,9 hPa #0,0 l/m 2,5 km/h (1 Bft) S - -0,6 C 0,4 C 3,3 km/h (1 Bft)